Regional Weather Roundup
Issued by NWS Kansas City/Pleasant Hill, MO

Home | Current Version | Previous Version | Text Only | Print | Product List | Glossary On
Versions: 1 2 3 4 5 6 7 8 9 10 11 12 13 14 15 16 17 18 19 20 21 22 23 24 25 26 27 28 29 30 31 32 33 34 35 36 37 38 39 40 41 42 43 44 45 46 47 48 49 50
000
ASUS43 KEAX 291610
RWREAX

WEATHER ROUNDUP FOR EASTERN KANSAS AND NORTHWEST MISSOURI
NATIONAL WEATHER SERVICE KANSAS CITY/PLEASANT HILL MO
1100 AM CDT FRI APR 29 2016

KSZ040-057-103>105-MOZ028-029-037-043-291700-
...KANSAS CITY METROPOLITAN AREA...

CITY           SKY/WX    TMP DP  RH WIND       PRES   REMARKS
K.C. INTL      CLOUDY    52  44  74 E13       30.03F
K.C. DOWNTOWN  CLOUDY    54  44  69 NE13      30.01F
LEES SUMMIT    CLOUDY    53  45  74 NE15      30.03R
OLATHE - IXD   PTSUNNY   54  45  71 E12       30.02R
OLATHE - OJC   CLOUDY    51  44  77 E13       30.02R
LAWRENCE       CLOUDY    51  45  79 NE14      30.02F

$$

MOZ001>008-011>017-020>025-030>033-038>040-044>046-053-054-291700-
...NORTHERN AND CENTRAL MISSOURI...

CITY           SKY/WX    TMP DP  RH WIND       PRES   REMARKS
ST. JOSEPH     CLOUDY    51  43  74 NE9       30.06F
MOSBY          CLOUDY    52  43  71 E14       30.05S
WARRENSBURG    CLOUDY    54  46  76 NE10G16   30.03R
WHITEMAN AFB   PTSUNNY   57  50  78 NE14      30.01S
CLINTON        CLOUDY    55  48  76 E12       30.01F
SEDALIA        CLOUDY    56  48  74 E12       30.04S
WARSAW         NOT AVBL
CHILLICOTHE      N/A     53  46  77 VRB6      30.09R
KIRKSVILLE     CLOUDY    53  45  74 NE9       30.06F

$$

MOZ041-047>049-056>058-063>065-088>090-097-291700-
...EASTERN AND SOUTHERN MISSOURI...

CITY           SKY/WX    TMP DP  RH WIND       PRES   REMARKS
ST. LOUIS INTL CLOUDY    60  48  64 SE6       30.07R
SPIRIT OF STL  CLOUDY    60  50  69 S5        30.07R
COLUMBIA       CLOUDY    56  49  77 NE7       30.06R
JEFFERSON CITY CLOUDY    56  48  74 E9        30.05S
ROLLA          CLOUDY    53  49  86 SE3       30.05R
OSAGE BEACH    CLOUDY    54  43  66 E7        30.03F
SPRINGFIELD    LGT RAIN  54  50  86 E9        29.97F
BRANSON        LGT RAIN  52  52 100 E25G31    29.90F
JOPLIN         PTSUNNY   58  53  84 E18G28    29.85F
WEST PLAINS    LGT RAIN  53  48  83 CALM      30.06R

$$

IAZ060-094-KSZ022-034>040-054-083-096-NEZ052-066-093-291700-
...KANSAS...SOUTHEAST NEBRASKA AND IOWA...

CITY           SKY/WX    TMP DP  RH WIND       PRES   REMARKS
TOPEKA         CLOUDY    50  43  77 NE13      30.02F
MANHATTAN      LGT RAIN  47  42  83 NE14      30.01F
EMPORIA        CLOUDY    51  44  77 N16       29.98F
CHANUTE        MOSUNNY   59  48  67 NE15G21   29.93R
WICHITA        CLOUDY    50  45  83 NE28G35   29.89F
OMAHA          CLOUDY    47  39  74 E9        30.11F
LINCOLN        CLOUDY    47  39  74 E12       30.11S
FALLS CITY     CLOUDY    49  43  80 NE9       30.05F
LAMONI         CLOUDY    48  44  86 NE10      30.07S
DES MOINES     CLOUDY    47  40  76 E6        30.12S

$$




USA.gov is the U.S. government's official web portal to all federal, state and local government web resources and services.